Del Bajio, Mexico

5:12 AM CDT on April 26, 2017 (GMT -0500)
De Guanajuato International

Weather History for MMLO - June, 2013

Change the Weather History Date:

Tuesday, June 18, 2013

  Actual Average Record
Temperature  
Mean Temperature 73 °F -  
Max Temperature 95 °F 83 °F 95 °F (2011)
Min Temperature 51 °F 60 °F 51 °F (2013)
Cooling Degree Days 8    
Growing Degree Days 23 (Base 50)    
Moisture  
Dew Point 44 °F    
Average Humidity 37    
Maximum Humidity 100    
Minimum Humidity 11    
Precipitation  
Precipitation 0.00 in - - ()
Sea Level Pressure  
Sea Level Pressure 30.00 in    
Wind  
Wind Speed 8 mph ()    
Max Wind Speed 26 mph    
Max Gust Speed 29 mph    
Visibility 8.7 miles    
Events      
Averages and records for this station are not official NWS values.
T = Trace of Precipitation, MM = Missing Value Source: Averaged Metar Reports

Daily Weather History Graph

Daily Weather History Graph

Search for Another Location

Airport or City:

Trip Planner

Search our weather history database for the weather conditions in past years. The results will help you decide how hot, cold, wet, or windy it might be!

Date:

Astronomy

Jun. 18, 2013 Rise Set
Actual Time 7:04 AM CDT 8:29 PM CDT
Civil Twilight 6:40 AM CDT 8:54 PM CDT
Nautical Twilight 6:10 AM CDT 9:23 PM CDT
Astronomical Twilight 5:39 AM CDT 9:54 PM CDT
Moon 3:42 PM CDT (6/18) 2:43 AM CDT (6/18)
Length of Visible Light 14h 14m
Length of Day
13h 24m
Waxing Gibbous, 71% of the Moon is Illuminated
Jun 18
Waxing Gibbous
Jun 23
Full
Jun 29
Last Quarter
Jul 8
New
Jul 15
First Quarter

Hourly Weather History & Observations

Time (CDT) Temp. Dew Point Humidity Pressure Visibility Wind Dir Wind Speed Gust Speed Precip Events Conditions
12:43 AM 69.8 °F 42.8 °F 38% 29.70 in 8.0 mi East 5.8 mph - N/A   Clear
2:44 AM 66.2 °F 46.4 °F 49% 30.21 in 8.0 mi NNE 4.6 mph - N/A   Clear
3:43 AM 64.4 °F 50.0 °F 59% 29.71 in 8.0 mi NE 11.5 mph - N/A   Clear
4:44 AM 62.6 °F 51.8 °F 68% 30.18 in 8.0 mi NE 9.2 mph - N/A   Clear
5:45 AM 51.8 °F 51.8 °F 100% 30.21 in 7.0 mi ENE 5.8 mph - N/A   Clear
6:46 AM 57.2 °F 51.8 °F 82% 29.77 in 7.0 mi East 4.6 mph - N/A   Clear
7:42 AM 60.8 °F 53.6 °F 77% 30.24 in 8.0 mi NE 26.5 mph - N/A   Clear
8:40 AM 69.8 °F 51.8 °F 53% 30.24 in 8.0 mi Calm Calm - N/A   Clear
9:45 AM 78.8 °F 48.2 °F 34% 29.77 in 9.0 mi Calm Calm - N/A   Clear
10:57 AM 80.6 °F 46.4 °F 30% 30.24 in 9.0 mi South 3.5 mph - N/A   Clear
11:47 AM 86.0 °F 44.6 °F 23% 30.21 in 9.0 mi ESE 4.6 mph - N/A   Clear
12:46 PM 86.0 °F 44.6 °F 23% 29.71 in 10.0 mi SW 4.6 mph - N/A   Partly Cloudy
1:43 PM 89.6 °F 46.4 °F 22% 30.18 in 10.0 mi SSE 8.1 mph - N/A   Scattered Clouds
2:41 PM 91.4 °F 42.8 °F 18% 30.15 in 10.0 mi SSW 5.8 mph - N/A   Scattered Clouds
3:42 PM 93.2 °F 37.4 °F 14% 29.64 in 10.0 mi East 8.1 mph - N/A   Scattered Clouds
4:45 PM 95.0 °F 32.0 °F 11% 30.09 in 10.0 mi North 10.4 mph - N/A   Scattered Clouds
5:46 PM 95.0 °F 33.8 °F 12% 30.06 in 10.0 mi NNE 9.2 mph - N/A   Scattered Clouds
6:45 PM 89.6 °F 33.8 °F 14% 29.63 in 10.0 mi NE 13.8 mph - N/A   Scattered Clouds
7:48 PM 84.2 °F 32.0 °F 15% 30.06 in 10.0 mi ENE 15.0 mph - N/A   Clear
8:45 PM 78.8 °F 41.0 °F 26% 30.09 in 8.0 mi ENE 19.6 mph - N/A   Clear
9:41 PM 75.2 °F 48.2 °F 38% 29.65 in 8.0 mi NE 16.1 mph 28.8 mph N/A   Clear
10:50 PM 71.6 °F 37.4 °F 29% 30.13 in 8.0 mi NE 20.7 mph - N/A   Clear
11:50 PM 71.6 °F 35.6 °F 27% 30.16 in 8.0 mi NE 21.9 mph - N/A   Clear